QPF
0.03 0.02 0.01 0.01 0.01 0.02 0.03 0.02 0.01 0.01 0.01 0.01 0.01 0.01 0.01 0.01 0.01 0.01 0.05 0.18 0.20 0.14 0.11 0.07 0.04 0.03 0.03 0.02 0.02 0.03 0.03 0.03 0.03 0.03 0.03 0.04 0.04 0.04 0.04 0.05 0.05 0.03 0.03
0.03 0.03 0.02 0.01 0.01 0.02 0.02 0.03 0.02 0.01 0.01 0.01 0.00 0.00 0.00 0.00 0.01 0.01 0.03 0.06 0.09 0.10 0.11 0.09 0.06 0.04 0.04 0.03 0.03 0.02 0.03 0.03 0.04 0.04 0.05 0.05 0.05 0.06 0.05 0.05 0.05 0.04 0.03
0.01 0.02 0.03 0.02 0.02 0.02 0.02 0.04 0.03 0.01 0.01 0.01 0.00 0.00 0.01 0.00 0.00 0.01 0.02 0.03 0.05 0.07 0.07 0.08 0.06 0.05 0.04 0.03 0.04 0.04 0.03 0.03 0.03 0.04 0.05 0.05 0.04 0.04 0.04 0.05 0.05 0.04 0.03
0.01 0.01 0.01 0.01 0.02 0.02 0.02 0.04 0.04 0.02 0.01 0.01 0.00 0.00 0.01 0.00 0.00 0.00 0.01 0.03 0.05 0.05 0.05 0.06 0.06 0.04 0.03 0.02 0.03 0.03 0.03 0.03 0.03 0.03 0.04 0.04 0.03 0.03 0.04 0.06 0.06 0.05 0.04
0.01 0.01 0.01 0.01 0.01 0.02 0.02 0.02 0.03 0.02 0.01 0.01 0.01 0.01 0.02 0.01 0.00 0.00 0.01 0.01 0.03 0.06 0.04 0.04 0.03 0.02 0.02 0.01 0.02 0.02 0.03 0.03 0.03 0.03 0.04 0.03 0.03 0.04 0.04 0.06 0.06 0.05 0.04
0.02 0.02 0.02 0.02 0.02 0.02 0.01 0.02 0.02 0.02 0.02 0.02 0.01 0.01 0.02 0.03 0.02 0.01 0.01 0.01 0.02 0.03 0.04 0.03 0.03 0.01 0.01 0.01 0.01 0.01 0.02 0.02 0.03 0.04 0.04 0.04 0.04 0.05 0.05 0.06 0.06 0.06 0.04
0.04 0.03 0.02 0.03 0.02 0.01 0.00 0.00 0.02 0.02 0.02 0.02 0.03 0.02 0.02 0.02 0.03 0.04 0.02 0.02 0.03 0.03 0.05 0.03 0.02 0.01 0.01 0.01 0.01 0.01 0.02 0.03 0.04 0.04 0.05 0.04 0.04 0.04 0.05 0.06 0.06 0.06 0.04
0.03 0.02 0.02 0.01 0.01 0.01 0.00 0.00 0.01 0.01 0.01 0.01 0.02 0.04 0.04 0.03 0.02 0.02 0.02 0.02 0.03 0.03 0.05 0.04 0.02 0.02 0.01 0.01 0.01 0.01 0.01 0.02 0.04 0.04 0.04 0.04 0.04 0.04 0.05 0.06 0.06 0.04 0.04
0.02 0.02 0.02 0.01 0.01 0.01 0.00 0.01 0.01 0.01 0.01 0.01 0.01 0.01 0.02 0.03 0.02 0.01 0.01 0.01 0.02 0.02 0.03 0.04 0.03 0.02 0.02 0.01 0.01 0.01 0.01 0.01 0.04 0.04 0.03 0.03 0.04 0.05 0.06 0.05 0.05 0.04 0.04
0.05 0.03 0.02 0.01 0.01 0.01 0.00 0.00 0.00 0.00 0.01 0.01 0.01 0.01 0.01 0.01 0.01 0.01 0.01 0.01 0.03 0.02 0.02 0.03 0.04 0.04 0.03 0.02 0.02 0.02 0.01 0.01 0.03 0.05 0.04 0.04 0.04 0.05 0.06 0.05 0.04 0.04 0.04
0.04 0.05 0.03 0.01 0.01 0.00 0.00 0.00 0.00 0.00 0.00 0.00 0.01 0.01 0.01 0.01 0.01 0.01 0.00 0.00 0.01 0.02 0.03 0.03 0.03 0.07 0.11 0.04 0.03 0.03 0.02 0.02 0.03 0.05 0.05 0.04 0.04 0.04 0.04 0.04 0.04 0.04 0.04
0.04 0.04 0.03 0.01 0.01 0.01 0.00 0.00 0.00 0.00 0.00 0.01 0.00 0.00 0.01 0.01 0.01 0.01 0.01 0.01 0.01 0.01 0.02 0.02 0.02 0.03 0.13 0.09 0.04 0.04 0.04 0.03 0.03 0.03 0.05 0.04 0.04 0.04 0.03 0.04 0.04 0.05 0.05
0.05 0.05 0.04 0.03 0.03 0.02 0.01 0.01 0.00 0.00 0.00 0.00 0.01 0.01 0.01 0.01 0.01 0.01 0.02 0.01 0.01 0.01 0.01 0.02 0.02 0.02 0.06 0.08 0.04 0.03 0.03 0.03 0.02 0.02 0.03 0.03 0.02 0.02 0.02 0.03 0.04 0.05 0.07
0.04 0.05 0.06 0.06 0.05 0.03 0.03 0.02 0.01 0.01 0.00 0.00 0.00 0.01 0.01 0.02 0.02 0.02 0.02 0.02 0.01 0.01 0.01 0.01 0.02 0.03 0.05 0.06 0.05 0.03 0.03 0.02 0.02 0.02 0.01 0.01 0.01 0.01 0.01 0.02 0.03 0.05 0.08
0.04 0.05 0.05 0.05 0.05 0.03 0.02 0.03 0.02 0.01 0.01 0.01 0.00 0.00 0.01 0.01 0.02 0.02 0.01 0.01 0.02 0.02 0.01 0.01 0.01 0.02 0.03 0.04 0.05 0.03 0.02 0.03 0.02 0.02 0.01 0.01 0.01 0.01 0.01 0.01 0.02 0.03 0.06
0.03 0.05 0.05 0.05 0.04 0.03 0.02 0.01 0.02 0.02 0.02 0.02 0.01 0.01 0.00 0.01 0.01 0.01 0.01 0.01 0.01 0.02 0.01 0.01 0.01 0.01 0.01 0.02 0.03 0.03 0.02 0.02 0.03 0.03 0.01 0.01 0.01 0.01 0.02 0.02 0.02 0.02 0.03
0.03 0.05 0.06 0.06 0.05 0.04 0.03 0.02 0.02 0.03 0.02 0.03 0.02 0.01 0.01 0.01 0.00 0.00 0.01 0.01 0.01 0.02 0.01 0.01 0.01 0.00 0.00 0.00 0.01 0.02 0.01 0.01 0.02 0.02 0.02 0.02 0.02 0.02 0.02 0.02 0.01 0.02 0.02
0.03 0.04 0.05 0.06 0.07 0.07 0.05 0.04 0.04 0.03 0.03 0.03 0.03 0.02 0.01 0.01 0.00 0.00 0.01 0.01 0.01 0.02 0.02 0.01 0.01 0.00 0.00 0.00 0.00 0.01 0.01 0.01 0.01 0.02 0.02 0.02 0.01 0.01 0.01 0.01 0.01 0.01 0.01
0.03 0.04 0.04 0.05 0.06 0.07 0.07 0.05 0.05 0.05 0.05 0.05 0.04 0.03 0.02 0.01 0.00 0.00 0.00 0.01 0.01 0.01 0.01 0.02 0.01 0.00 0.00 0.00 0.00 0.01 0.00 0.01 0.01 0.02 0.03 0.03 0.02 0.01 0.01 0.02 0.02 0.01 0.01
0.03 0.04 0.04 0.04 0.04 0.05 0.04 0.04 0.04 0.04 0.05 0.04 0.03 0.02 0.01 0.01 0.01 0.00 0.00 0.00 0.01 0.01 0.01 0.01 0.01 0.00 0.00 0.00 0.00 0.00 0.00 0.00 0.01 0.02 0.03 0.03 0.02 0.02 0.02 0.02 0.02 0.02 0.02
0.03 0.04 0.05 0.04 0.04 0.04 0.04 0.04 0.04 0.03 0.03 0.02 0.02 0.01 0.01 0.01 0.01 0.01 0.01 0.00 0.00 0.01 0.01 0.01 0.01 0.01 0.00 0.00 0.00 0.01 0.01 0.01 0.01 0.01 0.02 0.02 0.02 0.01 0.02 0.02 0.01 0.02 0.02
0.04 0.06 0.05 0.04 0.04 0.04 0.04 0.05 0.04 0.03 0.02 0.02 0.01 0.01 0.01 0.01 0.02 0.02 0.02 0.02 0.01 0.01 0.01 0.01 0.01 0.02 0.01 0.00 0.00 0.00 0.01 0.01 0.01 0.01 0.02 0.02 0.02 0.01 0.01 0.01 0.01 0.01 0.02
0.03 0.06 0.06 0.05 0.04 0.03 0.03 0.03 0.03 0.03 0.03 0.02 0.02 0.01 0.00 0.01 0.02 0.02 0.02 0.02 0.01 0.01 0.01 0.01 0.01 0.01 0.02 0.01 0.01 0.01 0.01 0.01 0.01 0.01 0.01 0.02 0.02 0.01 0.01 0.01 0.02 0.02 0.03
0.04 0.07 0.07 0.06 0.06 0.04 0.03 0.03 0.02 0.01 0.01 0.01 0.01 0.01 0.01 0.01 0.02 0.02 0.02 0.01 0.01 0.01 0.01 0.01 0.01 0.01 0.01 0.02 0.01 0.01 0.02 0.02 0.01 0.01 0.01 0.01 0.01 0.01 0.01 0.01 0.03 0.03 0.02
0.06 0.08 0.07 0.05 0.06 0.06 0.04 0.03 0.02 0.01 0.01 0.01 0.01 0.01 0.01 0.02 0.02 0.02 0.01 0.01 0.01 0.01 0.01 0.01 0.01 0.01 0.01 0.02 0.02 0.01 0.01 0.03 0.03 0.02 0.02 0.02 0.02 0.01 0.01 0.02 0.04 0.04 0.03
0.06 0.06 0.07 0.05 0.05 0.05 0.04 0.03 0.02 0.01 0.01 0.01 0.01 0.00 0.01 0.02 0.02 0.02 0.01 0.01 0.01 0.00 0.00 0.00 0.01 0.01 0.01 0.01 0.02 0.02 0.01 0.02 0.03 0.03 0.03 0.02 0.02 0.02 0.03 0.04 0.04 0.04 0.04
MSLP
1012.89 1013.22 1013.47 1013.63 1013.73 1013.82 1013.93 1014.07 1014.27 1014.52 1014.80 1015.08 1015.35 1015.58 1015.78 1015.94 1016.08 1016.21 1016.34 1016.47 1016.63 1016.79 1016.98 1017.18 1017.41 1017.64 1017.89 1018.14 1018.37 1018.58 1018.74 1018.84 1018.88 1018.86 1018.80 1018.71 1018.61 1018.52 1018.45 1018.39 1018.34 1018.29 1018.21
1012.59 1012.96 1013.29 1013.55 1013.76 1013.96 1014.16 1014.38 1014.64 1014.93 1015.24 1015.54 1015.82 1016.08 1016.29 1016.46 1016.61 1016.74 1016.86 1016.98 1017.11 1017.26 1017.42 1017.60 1017.81 1018.05 1018.30 1018.56 1018.80 1019.02 1019.20 1019.31 1019.36 1019.34 1019.28 1019.20 1019.10 1019.01 1018.94 1018.89 1018.83 1018.77 1018.68
1012.22 1012.62 1013.01 1013.38 1013.72 1014.04 1014.36 1014.68 1015.02 1015.36 1015.71 1016.04 1016.34 1016.61 1016.83 1017.02 1017.17 1017.30 1017.41 1017.51 1017.61 1017.72 1017.85 1018.00 1018.19 1018.40 1018.65 1018.91 1019.16 1019.40 1019.59 1019.72 1019.78 1019.78 1019.73 1019.65 1019.56 1019.47 1019.40 1019.34 1019.27 1019.20 1019.09
1011.85 1012.24 1012.68 1013.13 1013.59 1014.04 1014.48 1014.92 1015.34 1015.75 1016.14 1016.50 1016.82 1017.11 1017.35 1017.55 1017.71 1017.84 1017.95 1018.03 1018.11 1018.18 1018.27 1018.38 1018.53 1018.72 1018.94 1019.19 1019.45 1019.70 1019.90 1020.05 1020.13 1020.15 1020.11 1020.04 1019.95 1019.86 1019.79 1019.72 1019.65 1019.56 1019.43
1011.52 1011.86 1012.30 1012.81 1013.36 1013.92 1014.47 1015.01 1015.52 1015.99 1016.43 1016.83 1017.18 1017.49 1017.75 1017.98 1018.17 1018.32 1018.43 1018.52 1018.58 1018.63 1018.68 1018.75 1018.86 1019.01 1019.21 1019.44 1019.69 1019.94 1020.15 1020.32 1020.42 1020.45 1020.43 1020.36 1020.28 1020.20 1020.12 1020.04 1019.96 1019.85 1019.72
1011.25 1011.49 1011.89 1012.40 1012.99 1013.62 1014.25 1014.88 1015.46 1016.00 1016.49 1016.93 1017.32 1017.67 1017.98 1018.25 1018.48 1018.68 1018.82 1018.93 1019.00 1019.04 1019.08 1019.12 1019.19 1019.30 1019.46 1019.67 1019.90 1020.14 1020.35 1020.53 1020.64 1020.69 1020.69 1020.64 1020.57 1020.49 1020.40 1020.32 1020.22 1020.11 1019.96
1011.03 1011.13 1011.43 1011.89 1012.46 1013.12 1013.80 1014.48 1015.12 1015.72 1016.26 1016.75 1017.19 1017.59 1017.96 1018.30 1018.61 1018.86 1019.08 1019.23 1019.34 1019.40 1019.44 1019.47 1019.52 1019.60 1019.73 1019.90 1020.11 1020.33 1020.53 1020.71 1020.83 1020.90 1020.91 1020.88 1020.82 1020.75 1020.67 1020.58 1020.48 1020.35 1020.18
1010.85 1010.77 1010.93 1011.28 1011.80 1012.42 1013.11 1013.82 1014.50 1015.15 1015.74 1016.29 1016.79 1017.26 1017.70 1018.12 1018.51 1018.86 1019.15 1019.39 1019.56 1019.67 1019.74 1019.79 1019.84 1019.91 1020.01 1020.15 1020.32 1020.52 1020.70 1020.87 1021.00 1021.08 1021.11 1021.10 1021.07 1021.01 1020.93 1020.84 1020.73 1020.59 1020.41
1010.71 1010.43 1010.42 1010.63 1011.04 1011.60 1012.25 1012.95 1013.66 1014.34 1014.98 1015.59 1016.15 1016.70 1017.22 1017.72 1018.20 1018.64 1019.03 1019.36 1019.61 1019.81 1019.94 1020.03 1020.10 1020.18 1020.27 1020.39 1020.54 1020.70 1020.87 1021.02 1021.15 1021.24 1021.29 1021.31 1021.30 1021.26 1021.20 1021.12 1021.01 1020.85 1020.66
1010.59 1010.14 1009.93 1009.99 1010.26 1010.73 1011.32 1011.99 1012.70 1013.41 1014.09 1014.75 1015.38 1015.99 1016.58 1017.15 1017.71 1018.23 1018.71 1019.13 1019.48 1019.76 1019.98 1020.14 1020.27 1020.38 1020.49 1020.61 1020.74 1020.88 1021.02 1021.16 1021.29 1021.38 1021.46 1021.50 1021.52 1021.51 1021.47 1021.40 1021.28 1021.13 1020.92
1010.51 1009.90 1009.53 1009.43 1009.57 1009.92 1010.44 1011.07 1011.76 1012.48 1013.20 1013.90 1014.57 1015.23 1015.87 1016.49 1017.10 1017.68 1018.23 1018.73 1019.17 1019.54 1019.85 1020.11 1020.31 1020.48 1020.62 1020.76 1020.89 1021.02 1021.15 1021.28 1021.39 1021.50 1021.59 1021.66 1021.71 1021.73 1021.72 1021.66 1021.55 1021.39 1021.18
1010.46 1009.74 1009.24 1009.00 1009.01 1009.25 1009.69 1010.27 1010.94 1011.67 1012.40 1013.13 1013.83 1014.51 1015.17 1015.81 1016.44 1017.04 1017.63 1018.18 1018.69 1019.15 1019.56 1019.91 1020.21 1020.46 1020.67 1020.84 1020.99 1021.13 1021.25 1021.36 1021.47 1021.58 1021.69 1021.78 1021.87 1021.92 1021.94 1021.90 1021.80 1021.64 1021.42
1010.43 1009.64 1009.05 1008.71 1008.61 1008.76 1009.12 1009.65 1010.29 1011.01 1011.75 1012.49 1013.21 1013.90 1014.55 1015.18 1015.79 1016.39 1016.97 1017.55 1018.10 1018.64 1019.13 1019.59 1019.99 1020.34 1020.62 1020.86 1021.04 1021.19 1021.32 1021.42 1021.53 1021.64 1021.76 1021.88 1021.99 1022.08 1022.12 1022.11 1022.02 1021.86 1021.64
1010.36 1009.55 1008.93 1008.51 1008.34 1008.41 1008.70 1009.18 1009.80 1010.51 1011.25 1012.00 1012.73 1013.41 1014.04 1014.64 1015.21 1015.77 1016.33 1016.90 1017.48 1018.06 1018.63 1019.18 1019.69 1020.14 1020.52 1020.82 1021.06 1021.24 1021.37 1021.48 1021.59 1021.70 1021.82 1021.96 1022.10 1022.21 1022.28 1022.29 1022.22 1022.08 1021.85
1010.20 1009.42 1008.78 1008.33 1008.10 1008.11 1008.35 1008.79 1009.38 1010.09 1010.85 1011.61 1012.34 1013.02 1013.64 1014.20 1014.72 1015.23 1015.75 1016.29 1016.87 1017.49 1018.12 1018.75 1019.36 1019.91 1020.38 1020.77 1021.07 1021.28 1021.44 1021.56 1021.66 1021.77 1021.90 1022.05 1022.20 1022.34 1022.44 1022.47 1022.42 1022.29 1022.07
1009.89 1009.17 1008.54 1008.07 1007.81 1007.77 1007.96 1008.37 1008.96 1009.67 1010.45 1011.24 1012.00 1012.69 1013.30 1013.84 1014.33 1014.79 1015.26 1015.78 1016.34 1016.97 1017.65 1018.34 1019.03 1019.68 1020.25 1020.72 1021.08 1021.34 1021.53 1021.66 1021.76 1021.87 1022.00 1022.15 1022.32 1022.47 1022.59 1022.65 1022.62 1022.50 1022.30
1009.38 1008.71 1008.11 1007.64 1007.35 1007.28 1007.45 1007.84 1008.42 1009.16 1009.97 1010.81 1011.62 1012.35 1012.98 1013.53 1014.01 1014.44 1014.88 1015.36 1015.91 1016.54 1017.24 1017.99 1018.74 1019.47 1020.12 1020.67 1021.09 1021.41 1021.63 1021.77 1021.89 1022.00 1022.12 1022.27 1022.44 1022.61 1022.75 1022.82 1022.82 1022.72 1022.54
1008.65 1008.03 1007.45 1006.98 1006.68 1006.59 1006.74 1007.13 1007.73 1008.50 1009.37 1010.28 1011.15 1011.95 1012.65 1013.23 1013.72 1014.16 1014.58 1015.04 1015.57 1016.19 1016.90 1017.68 1018.48 1019.26 1019.98 1020.60 1021.09 1021.46 1021.71 1021.88 1022.00 1022.11 1022.24 1022.39 1022.55 1022.73 1022.87 1022.97 1022.99 1022.92 1022.76
1007.72 1007.13 1006.58 1006.12 1005.81 1005.72 1005.86 1006.26 1006.88 1007.70 1008.63 1009.62 1010.59 1011.48 1012.25 1012.90 1013.44 1013.90 1014.33 1014.78 1015.29 1015.90 1016.60 1017.38 1018.21 1019.03 1019.80 1020.48 1021.02 1021.44 1021.74 1021.94 1022.08 1022.19 1022.31 1022.45 1022.62 1022.79 1022.94 1023.06 1023.10 1023.05 1022.93
1006.60 1006.05 1005.52 1005.08 1004.79 1004.70 1004.86 1005.27 1005.93 1006.80 1007.80 1008.88 1009.94 1010.93 1011.80 1012.53 1013.13 1013.63 1014.08 1014.53 1015.03 1015.62 1016.30 1017.08 1017.91 1018.75 1019.55 1020.27 1020.87 1021.33 1021.67 1021.90 1022.06 1022.19 1022.31 1022.44 1022.60 1022.77 1022.93 1023.05 1023.11 1023.10 1023.01
1005.35 1004.83 1004.35 1003.95 1003.69 1003.63 1003.82 1004.26 1004.96 1005.88 1006.95 1008.10 1009.25 1010.34 1011.30 1012.12 1012.79 1013.34 1013.81 1014.27 1014.76 1015.33 1015.99 1016.73 1017.55 1018.40 1019.21 1019.96 1020.59 1021.10 1021.48 1021.75 1021.94 1022.07 1022.20 1022.33 1022.48 1022.65 1022.81 1022.94 1023.03 1023.05 1022.99
1004.00 1003.53 1003.11 1002.78 1002.58 1002.59 1002.82 1003.31 1004.05 1005.01 1006.14 1007.35 1008.58 1009.74 1010.79 1011.68 1012.42 1013.02 1013.52 1013.99 1014.47 1015.02 1015.64 1016.36 1017.15 1017.97 1018.79 1019.55 1020.21 1020.76 1021.18 1021.49 1021.70 1021.86 1022.00 1022.13 1022.28 1022.43 1022.59 1022.74 1022.84 1022.89 1022.88
1002.56 1002.18 1001.85 1001.62 1001.53 1001.61 1001.92 1002.47 1003.26 1004.26 1005.43 1006.68 1007.95 1009.17 1010.28 1011.24 1012.04 1012.68 1013.23 1013.71 1014.19 1014.71 1015.30 1015.98 1016.73 1017.52 1018.33 1019.08 1019.77 1020.34 1020.80 1021.14 1021.39 1021.58 1021.73 1021.87 1022.01 1022.17 1022.32 1022.47 1022.60 1022.67 1022.70
1001.06 1000.78 1000.59 1000.49 1000.53 1000.74 1001.15 1001.77 1002.61 1003.65 1004.83 1006.11 1007.41 1008.66 1009.81 1010.82 1011.67 1012.36 1012.94 1013.45 1013.93 1014.44 1015.01 1015.64 1016.35 1017.11 1017.88 1018.63 1019.31 1019.91 1020.39 1020.78 1021.06 1021.27 1021.44 1021.59 1021.74 1021.90 1022.05 1022.21 1022.34 1022.45 1022.51
999.50 999.36 999.32 999.39 999.59 999.95 1000.47 1001.18 1002.08 1003.15 1004.35 1005.63 1006.94 1008.21 1009.38 1010.43 1011.33 1012.08 1012.71 1013.25 1013.76 1014.26 1014.81 1015.41 1016.08 1016.79 1017.53 1018.25 1018.92 1019.52 1020.03 1020.44 1020.76 1021.00 1021.20 1021.37 1021.52 1021.68 1021.84 1021.99 1022.14 1022.26 1022.35
997.91 997.92 998.07 998.32 998.70 999.21 999.86 1000.67 1001.63 1002.73 1003.94 1005.22 1006.53 1007.81 1009.01 1010.09 1011.04 1011.85 1012.54 1013.13 1013.67 1014.20 1014.74 1015.31 1015.94 1016.61 1017.30 1017.99 1018.64 1019.23 1019.75 1020.18 1020.53 1020.81 1021.03 1021.22 1021.39 1021.54 1021.70 1021.86 1022.01 1022.14 1022.25
Thickness
5723 5722 5722 5722 5722 5722 5722 5721 5720 5719 5718 5718 5717 5716 5716 5716 5716 5716 5716 5716 5716 5716 5716 5716 5716 5716 5716 5715 5716 5715 5715 5715 5715 5716 5716 5717 5717 5717 5717 5718 5718 5719 5719
5721 5720 5719 5718 5718 5718 5717 5716 5715 5715 5714 5713 5711 5711 5711 5710 5710 5710 5710 5710 5710 5710 5711 5710 5710 5710 5710 5710 5710 5710 5710 5710 5711 5711 5711 5712 5712 5712 5713 5713 5713 5714 5715
5719 5717 5716 5715 5714 5714 5714 5713 5711 5710 5709 5707 5706 5706 5705 5704 5704 5704 5704 5704 5704 5704 5704 5704 5704 5704 5704 5705 5705 5705 5705 5705 5706 5706 5706 5706 5707 5707 5708 5708 5709 5710 5710
5715 5714 5713 5711 5711 5711 5710 5708 5706 5704 5702 5701 5700 5699 5699 5699 5698 5698 5698 5698 5697 5697 5697 5697 5697 5698 5698 5699 5699 5699 5700 5700 5700 5701 5701 5701 5701 5702 5703 5703 5704 5705 5705
5712 5711 5709 5708 5708 5707 5705 5704 5701 5699 5697 5695 5695 5694 5693 5693 5692 5692 5692 5691 5691 5691 5691 5691 5691 5691 5692 5693 5693 5694 5695 5695 5696 5696 5696 5696 5696 5697 5697 5698 5699 5699 5699
5708 5707 5705 5705 5704 5702 5700 5699 5697 5695 5693 5692 5691 5688 5687 5687 5687 5686 5686 5685 5685 5685 5684 5684 5684 5685 5685 5686 5687 5688 5690 5690 5691 5691 5691 5691 5691 5692 5692 5693 5693 5693 5693
5704 5703 5701 5700 5699 5697 5696 5695 5693 5690 5687 5687 5684 5680 5680 5681 5680 5680 5680 5680 5679 5678 5678 5679 5679 5679 5679 5680 5681 5683 5684 5685 5685 5685 5686 5686 5686 5686 5687 5687 5687 5687 5687
5700 5699 5698 5696 5695 5693 5691 5690 5689 5685 5683 5682 5679 5673 5669 5670 5673 5675 5674 5674 5673 5673 5673 5673 5674 5674 5674 5675 5676 5677 5678 5679 5680 5680 5680 5680 5680 5680 5680 5681 5681 5681 5681
5697 5696 5694 5693 5691 5690 5687 5686 5685 5683 5678 5677 5677 5673 5665 5661 5662 5665 5667 5668 5667 5667 5667 5668 5668 5668 5669 5669 5670 5671 5672 5673 5674 5674 5674 5674 5674 5674 5674 5675 5675 5675 5676
5692 5691 5690 5689 5688 5686 5684 5683 5682 5680 5677 5673 5673 5671 5669 5665 5660 5657 5658 5660 5662 5662 5662 5663 5663 5664 5664 5664 5665 5666 5667 5667 5668 5668 5668 5668 5668 5668 5668 5669 5669 5670 5670
5687 5687 5686 5685 5684 5682 5681 5679 5678 5676 5674 5672 5669 5667 5664 5661 5659 5654 5650 5651 5654 5656 5657 5658 5658 5659 5659 5660 5660 5661 5662 5662 5662 5662 5663 5663 5662 5662 5663 5663 5663 5664 5665
5681 5681 5681 5681 5680 5679 5677 5676 5674 5673 5671 5669 5667 5664 5662 5659 5655 5651 5647 5645 5645 5649 5652 5653 5653 5654 5654 5655 5655 5656 5656 5656 5656 5656 5656 5656 5656 5656 5657 5657 5657 5658 5658
5675 5676 5677 5676 5676 5675 5673 5672 5670 5668 5667 5665 5663 5661 5660 5658 5655 5651 5646 5642 5641 5642 5645 5647 5648 5649 5650 5650 5650 5650 5650 5650 5651 5650 5650 5650 5650 5650 5650 5650 5651 5651 5652
5672 5673 5673 5672 5672 5671 5669 5667 5666 5664 5663 5661 5660 5658 5656 5654 5652 5650 5645 5640 5636 5635 5638 5640 5643 5644 5644 5644 5645 5644 5644 5644 5645 5645 5644 5644 5643 5643 5643 5643 5644 5645 5646
5669 5668 5668 5667 5667 5666 5665 5663 5661 5659 5658 5656 5655 5653 5651 5649 5648 5646 5644 5641 5635 5631 5631 5634 5636 5638 5638 5639 5639 5639 5638 5638 5638 5638 5638 5637 5637 5637 5637 5637 5637 5638 5639
5664 5663 5663 5662 5661 5661 5660 5658 5656 5655 5653 5651 5649 5648 5646 5645 5643 5642 5640 5637 5635 5632 5629 5630 5631 5632 5633 5633 5633 5632 5632 5632 5632 5631 5631 5630 5630 5630 5630 5630 5631 5631 5632
5659 5658 5658 5657 5656 5655 5654 5653 5651 5650 5647 5645 5644 5642 5641 5640 5638 5636 5635 5633 5630 5629 5625 5625 5625 5626 5626 5626 5626 5626 5625 5625 5625 5624 5624 5624 5624 5623 5624 5624 5624 5625 5625
5654 5654 5652 5651 5651 5650 5649 5648 5646 5644 5642 5640 5638 5637 5635 5635 5633 5631 5629 5627 5626 5624 5622 5619 5619 5619 5619 5619 5619 5618 5618 5618 5618 5617 5617 5617 5617 5617 5617 5617 5618 5618 5619
5648 5647 5647 5645 5645 5644 5644 5643 5642 5640 5637 5635 5634 5632 5630 5629 5627 5625 5624 5622 5621 5620 5618 5615 5613 5612 5612 5612 5611 5611 5611 5611 5611 5611 5611 5611 5611 5611 5611 5611 5611 5612 5613
5642 5641 5640 5640 5639 5639 5639 5638 5636 5634 5632 5630 5629 5627 5626 5625 5623 5621 5619 5617 5616 5614 5611 5609 5607 5606 5605 5605 5604 5602 5602 5602 5603 5604 5604 5604 5604 5604 5604 5605 5605 5605 5606
5637 5635 5634 5634 5634 5634 5633 5632 5630 5629 5626 5624 5623 5622 5621 5621 5620 5618 5616 5613 5611 5608 5605 5603 5601 5599 5598 5597 5596 5596 5595 5595 5595 5596 5597 5598 5597 5597 5598 5598 5598 5599 5601
5630 5629 5628 5628 5628 5629 5629 5628 5626 5623 5621 5619 5617 5616 5616 5615 5615 5615 5613 5611 5609 5604 5600 5598 5595 5594 5593 5592 5591 5590 5588 5587 5587 5589 5588 5589 5590 5590 5592 5592 5593 5594 5595
5624 5622 5622 5622 5622 5622 5623 5623 5621 5618 5616 5614 5611 5610 5610 5610 5609 5607 5607 5606 5604 5602 5600 5597 5593 5592 5590 5589 5586 5584 5582 5581 5581 5582 5581 5582 5583 5583 5585 5587 5587 5588 5589
5618 5617 5616 5616 5616 5617 5617 5616 5615 5612 5610 5608 5606 5605 5603 5603 5603 5601 5599 5598 5596 5595 5595 5593 5592 5590 5589 5587 5584 5582 5579 5577 5576 5576 5576 5574 5576 5577 5580 5581 5582 5583 5583
5612 5611 5611 5610 5610 5610 5611 5610 5608 5605 5602 5601 5600 5599 5598 5597 5598 5596 5594 5591 5589 5588 5588 5588 5587 5586 5585 5583 5580 5576 5573 5570 5569 5569 5570 5568 5569 5570 5572 5574 5576 5576 5577
5606 5606 5605 5604 5604 5604 5604 5603 5602 5598 5596 5594 5593 5593 5593 5592 5591 5590 5587 5585 5583 5582 5581 5581 5580 5579 5578 5577 5575 5573 5570 5566 5563 5563 5564 5563 5562 5562 5563 5567 5568 5569 5570